Time,TemperatureF,DewpointF,PressureIn,WindDirection,WindDirectionDegrees,WindSpeedMPH,WindSpeedGustMPH,Humidity,HourlyPrecipIn,Conditions,Clouds,dailyrainin,SoftwareType,DateUTC
2015-07-04 00:03:00,79.0,77.0,30.04,SSE,166,0.0,1.0,94,-99.99,,,-99.99,,2015-07-04 05:03:00,
2015-07-04 00:12:00,79.0,77.0,30.04,SSE,159,0.0,1.0,94,-99.99,,,-99.99,,2015-07-04 05:12:00,
2015-07-04 00:23:00,79.0,77.0,30.04,SSE,159,0.0,1.0,94,-99.99,,,-99.99,,2015-07-04 05:23:00,
2015-07-04 00:33:00,79.0,77.0,30.03,SSE,159,0.0,0.0,94,-99.99,,,-99.99,,2015-07-04 05:33:00,
2015-07-04 00:44:00,78.0,76.0,30.03,SSE,159,0.0,0.0,95,-99.99,,,-99.99,,2015-07-04 05:44:00,
2015-07-04 00:53:00,78.0,76.0,30.03,SSE,159,0.0,0.0,95,-99.99,,,-99.99,,2015-07-04 05:53:00,
2015-07-04 01:13:00,78.0,76.0,30.03,SSE,159,0.0,0.0,95,-99.99,,,-99.99,,2015-07-04 06:13:00,
2015-07-04 01:23:00,78.0,76.0,30.03,SSE,159,0.0,0.0,95,-99.99,,,-99.99,,2015-07-04 06:23:00,
2015-07-04 01:33:00,77.0,76.0,30.03,SSE,159,0.0,0.0,96,-99.99,,,-99.99,,2015-07-04 06:33:00,
2015-07-04 01:43:00,77.0,75.0,30.03,South,186,0.0,3.0,95,-99.99,,,-99.99,,2015-07-04 06:43:00,
2015-07-04 01:53:00,77.0,75.0,30.03,South,186,0.0,3.0,95,-99.99,,,-99.99,,2015-07-04 06:53:00,
2015-07-04 02:03:00,77.0,75.0,30.02,SE,144,0.0,1.0,95,-99.99,,,-99.99,,2015-07-04 07:03:00,
2015-07-04 02:12:00,77.0,75.0,30.02,SE,144,0.0,1.0,95,-99.99,,,-99.99,,2015-07-04 07:12:00,
2015-07-04 02:23:00,77.0,75.0,30.02,SE,144,0.0,1.0,95,-99.99,,,-99.99,,2015-07-04 07:23:00,
2015-07-04 02:33:00,77.0,76.0,30.02,SE,144,0.0,0.0,96,-99.99,,,-99.99,,2015-07-04 07:33:00,
2015-07-04 02:43:00,77.0,76.0,30.02,SE,144,0.0,1.0,96,-99.99,,,-99.99,,2015-07-04 07:43:00,
2015-07-04 02:53:00,77.0,76.0,30.02,SE,144,0.0,1.0,96,-99.99,,,-99.99,,2015-07-04 07:53:00,
2015-07-04 03:03:00,77.0,76.0,30.01,SE,144,0.0,0.0,96,-99.99,,,-99.99,,2015-07-04 08:03:00,
2015-07-04 03:12:00,76.0,75.0,30.01,SE,144,0.0,0.0,96,-99.99,,,-99.99,,2015-07-04 08:12:00,
2015-07-04 03:23:00,76.0,75.0,30.01,SE,144,0.0,0.0,96,-99.99,,,-99.99,,2015-07-04 08:23:00,
2015-07-04 03:33:00,76.0,75.0,30.01,SE,144,0.0,1.0,97,-99.99,,,-99.99,,2015-07-04 08:33:00,
2015-07-04 03:43:00,76.0,75.0,30.01,SE,144,0.0,0.0,97,-99.99,,,-99.99,,2015-07-04 08:43:00,
2015-07-04 03:53:00,76.0,75.0,30.01,SE,144,0.0,0.0,97,-99.99,,,-99.99,,2015-07-04 08:53:00,
2015-07-04 04:03:00,76.0,75.0,30.01,SE,144,0.0,0.0,97,-99.99,,,-99.99,,2015-07-04 09:03:00,
2015-07-04 04:12:00,76.0,75.0,30.01,SE,144,0.0,0.0,97,-99.99,,,-99.99,,2015-07-04 09:12:00,
2015-07-04 04:23:00,76.0,75.0,30.01,SE,144,0.0,0.0,97,-99.99,,,-99.99,,2015-07-04 09:23:00,
2015-07-04 04:33:00,76.0,75.0,30.01,SE,144,0.0,1.0,97,-99.99,,,-99.99,,2015-07-04 09:33:00,
2015-07-04 04:43:00,76.0,75.0,30.01,SE,125,0.0,2.0,97,-99.99,,,-99.99,,2015-07-04 09:43:00,
2015-07-04 04:53:00,76.0,75.0,30.01,SE,125,0.0,2.0,97,-99.99,,,-99.99,,2015-07-04 09:53:00,
2015-07-04 05:04:00,77.0,76.0,30.01,SSW,204,0.0,5.0,97,-99.99,,,-99.99,,2015-07-04 10:04:00,
2015-07-04 05:13:00,77.0,76.0,30.02,SSW,207,0.0,1.0,97,-99.99,,,-99.99,,2015-07-04 10:13:00,
2015-07-04 05:23:00,77.0,76.0,30.02,SSW,207,0.0,1.0,97,-99.99,,,-99.99,,2015-07-04 10:23:00,
2015-07-04 05:33:00,77.0,76.0,30.02,SSW,207,0.0,0.0,97,-99.99,,,-99.99,,2015-07-04 10:33:00,
2015-07-04 05:43:00,77.0,76.0,30.02,SSW,208,0.0,1.0,97,-99.99,,,-99.99,,2015-07-04 10:43:00,
2015-07-04 05:53:00,77.0,76.0,30.02,SSW,208,0.0,1.0,97,-99.99,,,-99.99,,2015-07-04 10:53:00,
2015-07-04 06:03:00,77.0,76.0,30.03,SE,131,0.0,1.0,97,-99.99,,,-99.99,,2015-07-04 11:03:00,
2015-07-04 06:13:00,77.0,76.0,30.03,SE,132,0.0,1.0,97,-99.99,,,-99.99,,2015-07-04 11:13:00,
2015-07-04 06:23:00,77.0,76.0,30.03,SE,132,0.0,1.0,97,-99.99,,,-99.99,,2015-07-04 11:23:00,
2015-07-04 06:33:00,77.0,76.0,30.03,SSE,158,0.0,0.0,97,-99.99,,,-99.99,,2015-07-04 11:33:00,
2015-07-04 06:43:00,77.0,76.0,30.04,SSE,158,0.0,0.0,97,-99.99,,,-99.99,,2015-07-04 11:43:00,
2015-07-04 06:53:00,77.0,76.0,30.04,SSE,158,0.0,0.0,97,-99.99,,,-99.99,,2015-07-04 11:53:00,
2015-07-04 07:03:00,77.0,76.0,30.05,WSW,257,0.0,1.0,98,-99.99,,,-99.99,,2015-07-04 12:03:00,
2015-07-04 07:13:00,77.0,76.0,30.06,WSW,257,0.0,0.0,97,-99.99,,,-99.99,,2015-07-04 12:13:00,
2015-07-04 07:23:00,77.0,76.0,30.06,WSW,257,0.0,0.0,97,-99.99,,,-99.99,,2015-07-04 12:23:00,
2015-07-04 07:33:00,78.0,77.0,30.06,WSW,257,0.0,1.0,97,-99.99,,,-99.99,,2015-07-04 12:33:00,
2015-07-04 07:44:00,78.0,77.0,30.06,WSW,257,0.0,1.0,96,-99.99,,,-99.99,,2015-07-04 12:44:00,
2015-07-04 07:53:00,78.0,77.0,30.06,WSW,257,0.0,1.0,96,-99.99,,,-99.99,,2015-07-04 12:53:00,
2015-07-04 08:03:00,79.0,77.0,30.06,SW,222,0.0,2.0,94,-99.99,,,-99.99,,2015-07-04 13:03:00,
2015-07-04 08:13:00,80.0,77.0,30.07,SSW,201,0.0,2.0,92,-99.99,,,-99.99,,2015-07-04 13:13:00,
2015-07-04 08:23:00,80.0,77.0,30.07,SSW,201,0.0,2.0,92,-99.99,,,-99.99,,2015-07-04 13:23:00,
2015-07-04 08:33:00,81.0,78.0,30.07,West,262,0.0,4.0,90,-99.99,,,-99.99,,2015-07-04 13:33:00,
2015-07-04 08:43:00,82.0,78.0,30.08,WSW,240,0.0,3.0,88,-99.99,,,-99.99,,2015-07-04 13:43:00,
2015-07-04 08:53:00,82.0,78.0,30.08,WSW,240,0.0,3.0,88,-99.99,,,-99.99,,2015-07-04 13:53:00,
2015-07-04 09:03:00,82.0,78.0,30.07,WSW,253,1.0,3.0,87,-99.99,,,-99.99,,2015-07-04 14:03:00,
2015-07-04 09:12:00,83.0,78.0,30.07,SW,226,0.0,3.0,84,-99.99,,,-99.99,,2015-07-04 14:12:00,
2015-07-04 09:23:00,83.0,78.0,30.07,SW,226,0.0,3.0,84,-99.99,,,-99.99,,2015-07-04 14:23:00,
2015-07-04 09:34:00,84.0,78.0,30.08,SW,217,0.0,5.0,82,-99.99,,,-99.99,,2015-07-04 14:34:00,
2015-07-04 09:43:00,85.0,78.0,30.08,WNW,300,1.0,7.0,79,-99.99,,,-99.99,,2015-07-04 14:43:00,
2015-07-04 09:53:00,85.0,78.0,30.08,WNW,300,1.0,7.0,79,-99.99,,,-99.99,,2015-07-04 14:53:00,
2015-07-04 10:03:00,87.0,78.0,30.08,WNW,296,3.0,8.0,75,-99.99,,,-99.99,,2015-07-04 15:03:00,
2015-07-04 10:12:00,86.0,76.0,30.08,NW,318,3.0,8.0,73,-99.99,,,-99.99,,2015-07-04 15:12:00,
2015-07-04 10:23:00,86.0,76.0,30.08,NW,318,3.0,8.0,73,-99.99,,,-99.99,,2015-07-04 15:23:00,
2015-07-04 10:33:00,87.0,77.0,30.07,WNW,301,2.0,7.0,72,-99.99,,,-99.99,,2015-07-04 15:33:00,
2015-07-04 10:43:00,88.0,77.0,30.08,NE,34,3.0,9.0,69,-99.99,,,-99.99,,2015-07-04 15:43:00,
2015-07-04 10:53:00,88.0,77.0,30.08,NE,34,3.0,9.0,69,-99.99,,,-99.99,,2015-07-04 15:53:00,
2015-07-04 11:03:00,88.0,78.0,30.08,WSW,252,0.0,6.0,72,-99.99,,,-99.99,,2015-07-04 16:03:00,
2015-07-04 11:13:00,88.0,77.0,30.07,NW,305,3.0,7.0,70,-99.99,,,-99.99,,2015-07-04 16:13:00,
2015-07-04 11:23:00,88.0,77.0,30.07,NW,305,3.0,7.0,70,-99.99,,,-99.99,,2015-07-04 16:23:00,
2015-07-04 11:33:00,87.0,78.0,30.07,West,269,1.0,3.0,75,-99.99,,,-99.99,,2015-07-04 16:33:00,
2015-07-04 11:53:00,85.0,78.0,30.07,SSW,207,0.0,4.0,81,-99.99,,,-99.99,,2015-07-04 16:53:00,
2015-07-04 12:03:00,83.0,78.0,30.07,ESE,110,2.0,5.0,84,-99.99,,,-99.99,,2015-07-04 17:03:00,
2015-07-04 12:13:00,82.0,77.0,30.06,East,100,0.0,3.0,86,-99.99,,,-99.99,,2015-07-04 17:13:00,
2015-07-04 12:23:00,82.0,77.0,30.06,East,100,0.0,3.0,86,-99.99,,,-99.99,,2015-07-04 17:23:00,
2015-07-04 12:54:00,85.0,78.0,30.05,ENE,72,1.0,4.0,80,-99.99,,,-99.99,,2015-07-04 17:54:00,
2015-07-04 13:03:00,89.0,77.0,30.05,SSW,205,1.0,8.0,68,-99.99,,,-99.99,,2015-07-04 18:03:00,
2015-07-04 13:13:00,91.0,78.0,30.04,South,188,1.0,7.0,65,-99.99,,,-99.99,,2015-07-04 18:13:00,
2015-07-04 13:23:00,91.0,78.0,30.04,South,188,1.0,7.0,65,-99.99,,,-99.99,,2015-07-04 18:23:00,
2015-07-04 13:34:00,90.0,78.0,30.04,SSW,195,4.0,10.0,67,-99.99,,,-99.99,,2015-07-04 18:34:00,
2015-07-04 13:44:00,91.0,78.0,30.03,SE,145,3.0,9.0,65,-99.99,,,-99.99,,2015-07-04 18:44:00,
2015-07-04 13:54:00,91.0,78.0,30.03,SE,145,3.0,9.0,65,-99.99,,,-99.99,,2015-07-04 18:54:00,
2015-07-04 14:03:00,92.0,78.0,30.02,SE,139,4.0,8.0,64,-99.99,,,-99.99,,2015-07-04 19:03:00,
2015-07-04 14:13:00,91.0,77.0,30.02,South,174,2.0,13.0,64,-99.99,,,-99.99,,2015-07-04 19:13:00,
2015-07-04 14:23:00,91.0,77.0,30.02,South,174,2.0,13.0,64,-99.99,,,-99.99,,2015-07-04 19:23:00,
2015-07-04 14:34:00,91.0,77.0,30.01,SSE,152,3.0,9.0,64,-99.99,,,-99.99,,2015-07-04 19:34:00,
2015-07-04 14:44:00,92.0,78.0,30.01,West,264,3.0,7.0,63,-99.99,,,-99.99,,2015-07-04 19:44:00,
2015-07-04 14:53:00,92.0,78.0,30.01,West,264,3.0,7.0,63,-99.99,,,-99.99,,2015-07-04 19:53:00,
2015-07-04 15:03:00,90.0,77.0,30.01,West,268,4.0,10.0,65,-99.99,,,-99.99,,2015-07-04 20:03:00,
2015-07-04 15:13:00,90.0,78.0,30.01,ESE,110,4.0,13.0,67,-99.99,,,-99.99,,2015-07-04 20:13:00,
2015-07-04 15:23:00,90.0,78.0,30.01,ESE,110,4.0,13.0,67,-99.99,,,-99.99,,2015-07-04 20:23:00,
2015-07-04 15:34:00,91.0,78.0,30.01,SSW,195,3.0,9.0,66,-99.99,,,-99.99,,2015-07-04 20:34:00,
2015-07-04 15:43:00,91.0,79.0,30.00,SSE,155,2.0,10.0,69,-99.99,,,-99.99,,2015-07-04 20:43:00,
2015-07-04 16:03:00,91.0,77.0,30.00,SSW,200,3.0,10.0,64,-99.99,,,-99.99,,2015-07-04 21:03:00,
2015-07-04 16:13:00,89.0,77.0,30.01,South,189,4.0,12.0,68,-99.99,,,-99.99,,2015-07-04 21:13:00,
2015-07-04 16:23:00,89.0,77.0,30.01,South,189,4.0,12.0,68,-99.99,,,-99.99,,2015-07-04 21:23:00,
2015-07-04 16:33:00,88.0,77.0,30.02,SW,234,3.0,10.0,70,-99.99,,,-99.99,,2015-07-04 21:33:00,
2015-07-04 16:43:00,89.0,77.0,30.03,South,169,3.0,10.0,68,-99.99,,,-99.99,,2015-07-04 21:43:00,
2015-07-04 16:53:00,89.0,77.0,30.03,South,169,3.0,10.0,68,-99.99,,,-99.99,,2015-07-04 21:53:00,
2015-07-04 17:03:00,90.0,76.0,30.03,SSW,193,2.0,9.0,63,-99.99,,,-99.99,,2015-07-04 22:03:00,
2015-07-04 17:13:00,91.0,78.0,30.03,SW,220,1.0,9.0,65,-99.99,,,-99.99,,2015-07-04 22:13:00,
2015-07-04 17:23:00,91.0,78.0,30.03,SW,220,1.0,9.0,65,-99.99,,,-99.99,,2015-07-04 22:23:00,
2015-07-04 17:33:00,90.0,78.0,30.03,SE,134,1.0,6.0,67,-99.99,,,-99.99,,2015-07-04 22:33:00,
2015-07-04 17:43:00,90.0,78.0,30.03,SSE,148,2.0,7.0,67,-99.99,,,-99.99,,2015-07-04 22:43:00,
2015-07-04 17:53:00,90.0,78.0,30.03,SSE,148,2.0,7.0,67,-99.99,,,-99.99,,2015-07-04 22:53:00,
2015-07-04 18:03:00,90.0,77.0,30.03,SSW,203,1.0,6.0,65,-99.99,,,-99.99,,2015-07-04 23:03:00,
2015-07-04 18:13:00,88.0,76.0,30.03,West,274,1.0,5.0,67,-99.99,,,-99.99,,2015-07-04 23:13:00,
2015-07-04 18:23:00,88.0,76.0,30.03,West,274,1.0,5.0,67,-99.99,,,-99.99,,2015-07-04 23:23:00,
2015-07-04 18:33:00,88.0,75.0,30.03,NW,305,1.0,9.0,66,-99.99,,,-99.99,,2015-07-04 23:33:00,
2015-07-04 18:43:00,87.0,76.0,30.03,SW,224,1.0,5.0,69,-99.99,,,-99.99,,2015-07-04 23:43:00,
2015-07-04 18:53:00,87.0,76.0,30.03,SW,224,1.0,5.0,69,-99.99,,,-99.99,,2015-07-04 23:53:00,
2015-07-04 19:03:00,86.0,75.0,30.04,WNW,303,2.0,5.0,71,-99.99,,,-99.99,,2015-07-05 00:03:00,
2015-07-04 19:13:00,80.0,71.0,30.06,NW,318,5.0,16.0,73,-99.99,,,-99.99,,2015-07-05 00:13:00,
2015-07-04 19:23:00,80.0,71.0,30.06,NW,318,5.0,16.0,73,-99.99,,,-99.99,,2015-07-05 00:23:00,
2015-07-04 19:33:00,79.0,70.0,30.06,WNW,302,4.0,9.0,74,-99.99,,,-99.99,,2015-07-05 00:33:00,
2015-07-04 19:43:00,78.0,70.0,30.06,NW,313,1.0,7.0,76,-99.99,,,-99.99,,2015-07-05 00:43:00,
2015-07-04 19:53:00,78.0,70.0,30.06,NW,313,1.0,7.0,76,-99.99,,,-99.99,,2015-07-05 00:53:00,
2015-07-04 20:03:00,77.0,69.0,30.06,NNW,340,0.0,4.0,77,-99.99,,,-99.99,,2015-07-05 01:03:00,
2015-07-04 20:12:00,77.0,70.0,30.08,SSW,201,0.0,3.0,79,-99.99,,,-99.99,,2015-07-05 01:12:00,
2015-07-04 20:23:00,77.0,70.0,30.08,SSW,201,0.0,3.0,79,-99.99,,,-99.99,,2015-07-05 01:23:00,
2015-07-04 20:33:00,76.0,69.0,30.06,ESE,114,1.0,4.0,80,-99.99,,,-99.99,,2015-07-05 01:33:00,
2015-07-04 20:43:00,76.0,70.0,30.04,SE,137,0.0,1.0,81,-99.99,,,-99.99,,2015-07-05 01:43:00,
2015-07-04 20:53:00,76.0,70.0,30.04,SE,137,0.0,1.0,81,-99.99,,,-99.99,,2015-07-05 01:53:00,
2015-07-04 21:03:00,75.0,69.0,30.03,WNW,289,0.0,1.0,81,-99.99,,,-99.99,,2015-07-05 02:03:00,
2015-07-04 21:23:00,75.0,70.0,30.05,WNW,289,0.0,1.0,84,-99.99,,,-99.99,,2015-07-05 02:23:00,
2015-07-04 21:33:00,74.0,69.0,30.06,WNW,303,0.0,2.0,85,-99.99,,,-99.99,,2015-07-05 02:33:00,
2015-07-04 21:43:00,74.0,70.0,30.06,ESE,117,0.0,0.0,86,-99.99,,,-99.99,,2015-07-05 02:43:00,